Weather History for Tulsa Jones, OK

Change the Weather History Date:

Monday, May 12, 2014

  Actual Average (KTUL) Record (KTUL)
Temperature  
Mean Temperature 69 °F 68 °F  
Max Temperature 81 °F 78 °F 91 °F (1992)
Min Temperature 55 °F 58 °F 40 °F (1960)
Cooling Degree Days 4 5  
Month to date cooling degree days 44  
Year to date cooling degree days 109  
Growing Degree Days 19 (Base 50)    
Moisture  
Dew Point 61 °F    
Average Humidity 81    
Maximum Humidity 94    
Minimum Humidity 67    
Precipitation  
Precipitation 0.44 in 0.18 in 4.05 in (1982)
Month to date precipitation 2.19  
Year to date precipitation 12.78  
Sea Level Pressure  
Sea Level Pressure 29.87 in    
Wind  
Wind Speed 11 mph (SSW)    
Max Wind Speed 16 mph    
Max Gust Speed 25 mph    
Visibility 9 miles    
Events Rain    
T = Trace of Precipitation, MM = Missing Value Source: NWS Daily Summary

Daily Weather History Graph

Daily Weather History Graph

Search for Another Location

Airport:

Trip Planner

Search our weather history database for the weather conditions in past years. The results will help you decide how hot, cold, wet, or windy it might be!

Date:

Astronomy

May. 12, 2014 Rise Set
Actual Time 6:20 AM CDT 8:20 PM CDT
Civil Twilight 5:52 AM CDT 8:48 PM CDT
Nautical Twilight 5:17 AM CDT 9:23 PM CDT
Astronomical Twilight 4:40 AM CDT 10:00 PM CDT
Moon 6:23 PM CDT (5/12) 4:55 AM CDT (5/12)
Length of Visible Light 14h 56m
Length of Day
14h 00m
Waxing Gibbous, 95% of the Moon is Illuminated
May 12
Waxing Gibbous
May 14
Full
May 21
Last Quarter
May 28
New
Jun 5
First Quarter

Hourly Weather History & Observations

Time (CDT) Temp. Heat Index Dew Point Humidity Pressure Visibility Wind Dir Wind Speed Gust Speed Precip Events Conditions
12:53 AM 77.0 °F - 69.1 °F 76% 29.71 in 10.0 mi South 10.4 mph - N/A   Overcast
1:53 AM 78.1 °F - 69.1 °F 74% 29.71 in 10.0 mi South 15.0 mph 25.3 mph N/A   Mostly Cloudy
2:53 AM 79.0 °F - 68.0 °F 69% 29.71 in 10.0 mi South 16.1 mph 25.3 mph N/A   Partly Cloudy
3:53 AM 77.0 °F - 68.0 °F 74% 29.70 in 10.0 mi South 16.1 mph 23.0 mph N/A   Clear
4:32 AM 75.2 °F - 68.0 °F 78% 29.77 in 10.0 mi Variable 6.9 mph - N/A   Mostly Cloudy
4:53 AM 77.0 °F - 68.0 °F 74% 29.77 in 10.0 mi South 13.8 mph 21.9 mph N/A   Overcast
5:06 AM 77.0 °F - 68.0 °F 74% 29.78 in 10.0 mi SSW 15.0 mph 20.7 mph N/A   Overcast
5:53 AM 77.0 °F - 66.9 °F 71% 29.80 in 10.0 mi South 12.7 mph - N/A   Overcast
6:53 AM 77.0 °F - 66.9 °F 71% 29.79 in 10.0 mi South 10.4 mph - N/A   Scattered Clouds
7:53 AM 77.0 °F - 68.0 °F 74% 29.80 in 10.0 mi South 13.8 mph - N/A   Scattered Clouds
9:53 AM 80.1 °F 82.7 °F 68.0 °F 67% 29.81 in 10.0 mi South 13.8 mph 23.0 mph N/A   Mostly Cloudy
10:53 AM 81.0 °F 84.1 °F 69.1 °F 67% 29.82 in 10.0 mi South 16.1 mph 24.2 mph N/A   Overcast
11:15 AM 71.6 °F - 64.4 °F 78% 29.83 in 10.0 mi Variable 6.9 mph 18.4 mph 0.00 in Rain Light Rain
11:27 AM 68.0 °F - 64.4 °F 88% 29.83 in 1.8 mi WNW 8.1 mph - 0.07 in Rain Heavy Rain
11:35 AM 66.2 °F - 64.4 °F 94% 29.85 in 3.0 mi WSW 5.8 mph - 0.08 in Rain Light Rain
11:53 AM 64.9 °F - 63.0 °F 93% 29.87 in 8.0 mi Variable 5.8 mph - 0.12 in Rain Light Rain
12:46 PM 64.4 °F - 62.6 °F 94% 29.87 in 10.0 mi Variable 4.6 mph 16.1 mph 0.03 in Rain Light Rain
12:53 PM 66.0 °F - 62.1 °F 87% 29.89 in 10.0 mi Variable 4.6 mph - 0.03 in   Overcast
1:27 PM 64.4 °F - 60.8 °F 88% 29.87 in 10.0 mi Variable 5.8 mph - N/A   Overcast
1:53 PM 64.0 °F - 59.0 °F 84% 29.91 in 10.0 mi WNW 8.1 mph - 0.00 in Rain Light Rain
2:53 PM 62.1 °F - 57.0 °F 84% 29.89 in 10.0 mi Variable 5.8 mph - 0.00 in Rain Light Rain
3:16 PM 60.8 °F - 55.4 °F 82% 29.85 in 10.0 mi North 9.2 mph 17.3 mph 0.01 in Rain Light Rain
3:53 PM 60.1 °F - 55.0 °F 83% 29.88 in 10.0 mi Variable 5.8 mph - 0.01 in Rain Light Rain
4:53 PM 59.0 °F - 54.0 °F 83% 29.94 in 9.0 mi North - - 0.01 in Rain Light Rain
5:14 PM 59.0 °F - 55.4 °F 88% 29.91 in 10.0 mi North - - 0.01 in Rain Light Rain
5:53 PM 57.9 °F - 55.0 °F 90% 29.94 in 2.5 mi North - - 0.18 in Rain Rain
6:00 PM 57.2 °F - 53.6 °F 88% 29.93 in 5.0 mi North - - 0.01 in Rain Light Rain
6:21 PM 57.2 °F - 53.6 °F 88% 29.96 in 10.0 mi North - - 0.01 in Rain Light Rain
6:53 PM 57.0 °F - 54.0 °F 89% 29.99 in 6.0 mi North - - 0.03 in Rain Light Rain
7:53 PM 57.0 °F - 54.0 °F 89% 30.03 in 10.0 mi North - - 0.06 in Rain Light Rain
8:53 PM 57.0 °F - 54.0 °F 89% 30.01 in 10.0 mi North - - 0.00 in   Overcast
10:53 PM 57.0 °F - 50.0 °F 77% 30.08 in 10.0 mi North - - N/A   Overcast
11:53 PM 55.9 °F - 48.0 °F 75% 30.12 in 10.0 mi North - - N/A   Overcast